星链-6033 (STARLINK-6033 )

导读

STARLINK-6033是美国SpaceX公司星链(Starlink)低轨互联网星座的第二代卫星,于2023年4月27日发射入轨,属于星链星座组网扩张的组成部分。 星链计划旨在通过近地轨道大规模卫星组网,为全球提供高速低延迟宽带服务,覆盖偏远地区、海事航空,也拓展了手机直连等应用,同时也引发太空碎片与轨道安全等领域的争议。截至2026年,星链已累计有近万颗卫星在轨运行。

Basic Information
目录编号:
56322
目录名称:
STARLINK-6033
国际标识:
2023-058F
轨道中心:
EARTH
卫星名称:
星链-6033
卫星全名:
星链-6033 (STARLINK-6033 )
卫星状态:
在轨 (已飞行1234 天)
发射日期:
2023-04-27 UTC
国别 :
美国 (US)
星等 :
--
This satellite is enrolled in the Space Conjunction Data Service (SCDS) and the current flight risk assessment level is: No High Risk
Orbit Information
数据来源 国际轨道数据 AOE轨道数据
星历时间 2026-09-12T06:42:02+0800
13小时前
查看轨道信息
2026-09-10T11:00:00+0800
2天前
查看轨道信息
半长轴 6912.676km 6912.704km
偏心率 0.0001424 0.0001114
轨道倾角 97.285° 97.285°
近地点辐角 93.857° 89.790°
升交点赤经 249.265° 247.533°
平近点角 266.282° 94.906°
近地点 533.554km 533.796km
远地点 535.524km 535.338km
周期 95.330分钟 95.330分钟
每日圈数 15.105444 15.105351
Detailed Information
固有亮度:
5
最大亮度:
2.5
卫星平台:
Starlink v1.5
覆盖范围:
全球
运营商:
太空探索技术公司
运营商所在国:
美国
制造商(研发单位):
太空探索技术公司
制造商所在国:
美国
使用方式:
暂无
Satellite Introduction
星链(Starlink)计划是由太空探索技术公司(SpaceX)提出的一个巨型低轨卫星互联网星座项目,计划在2019年至2024年间在太空搭建由约1.2万颗卫星组成的“星链”网络,其中1584颗将部署在地球上空550千米处的近地轨道,并从2020年开始工作。该卫星仍在工作。
2D Orbit Map
3D Orbit Map
Orbit Altitude Analysis Chart
Orbit Inclination Analysis Chart
Orbit Comprehensive Analysis Chart
View Comprehensive Chart
Conjunction Data List
Event ID Objects TCA Miss Dist (km) Collision Risk Probability Collision Risk Index (CRI) Action
CDM_260906-163605-347405-632221
2026-09-06T
16:36:14+0000
1.974 km
极远距离
2.728116E-6 低风险 0.44
Miss Distance Evolution Trend with All Objects
Collision Probability Evolution Trend with All Objects